Вернуться в каталог

CZ-6A DEB

АктивенPO
NORAD 60759·DEBRIS·🇨🇳 China

Запущен Aug 6, 2024 с Taiyuan Satellite Launch Center

Loading…

Ближайшие Пролёты (ближайшие 24 часа)

TLE

СвежийSource: Space-Track

Эпоха: Sep 14, 2026, 10:48 UTC

1 60759U 24140EJ  26257.45005637  .00000976  00000-0  44393-3 0  9998
2 60759  89.0007 265.2654 0051196 253.1651 106.3921 14.20348065108709

Отслеживайте CZ-6A DEB в реальном времени с AllMySat

Download on the App Store